Location: *
(2.5500°S, 65.9667°W)
Time: 18:40:15
(UTC+00:00)

Courier 1B - Visible Passes

Search period start: 19 April 2024 00:00
Search period end: 29 April 2024 00:00
Orbit: 962 x 1208 km, 28.3° (Epoch: 18 April)

Date Brightness Start Highest point End Pass type
(mag) Time Alt. Az. Time Alt. Az. Time Alt. Az.
19 Apr 9.8 01:13:28 10° SW 01:15:19 18° SW 01:15:19 18° SW visible
20 Apr 8.8 00:19:48 10° SW 00:25:08 33° S 00:25:08 33° S visible
20 Apr 8.9 23:26:18 10° SSW 23:32:37 27° SSE 23:35:04 23° SE visible
21 Apr 9.6 01:19:28 10° WSW 01:22:00 23° SW 01:22:00 23° SW visible
21 Apr 9.2 22:32:57 10° SSW 22:38:22 21° SSE 22:43:53 10° ESE visible
22 Apr 8.2 00:25:36 10° SW 00:32:02 54° S 00:32:02 54° S visible
22 Apr 8.3 23:31:55 10° SW 23:39:08 44° SSE 23:42:11 32° ESE visible
23 Apr 9.5 01:25:56 10° WSW 01:29:07 27° WSW 01:29:07 27° WSW visible
23 Apr 8.7 22:38:23 10° SW 22:45:01 33° SSE 22:51:52 10° E visible
24 Apr 7.8 00:31:49 10° WSW 00:39:22 81° NW 00:39:22 81° NW visible
24 Apr 7.8 23:37:54 10° SW 23:45:30 75° SSE 23:49:43 30° ENE visible
25 Apr 9.6 01:33:01 10° W 01:36:40 25° WNW 01:36:40 25° WNW visible
25 Apr 10.1 09:23:09 10° N 09:25:14 11° NNE 09:27:17 10° NE visible
25 Apr 8.1 22:44:10 10° SW 22:51:27 55° SSE 22:59:02 10° ENE visible
26 Apr 8.6 00:38:33 10° WSW 00:45:53 48° NNW 00:47:07 44° N visible
26 Apr 8.2 23:44:19 10° WSW 23:51:48 65° NNW 23:57:37 19° NE visible
27 Apr 9.9 01:41:01 10° WNW 01:44:35 19° NW 01:44:35 19° NW visible
27 Apr 9.8 09:26:55 10° NNW 09:32:03 21° NNE 09:36:59 10° ENE visible
27 Apr 7.9 22:50:21 10° WSW 22:57:46 87° NNW 23:05:34 10° ENE visible
28 Apr 9.4 00:46:00 10° W 00:52:20 28° NNW 00:55:07 23° N visible
28 Apr 10.0 08:33:49 10° NNW 08:37:56 16° NNE 08:41:56 10° ENE visible
